Weather History for Lancaster, CA

Change the Weather History Date:

Friday, September 20, 2013

  Actual Average Record
Temperature  
Mean Temperature 71 °F 72 °F  
Max Temperature 90 °F 89 °F 100 °F (2000)
Min Temperature 51 °F 55 °F 38 °F (1978)
Degree Days  
Heating Degree Days 0    
Month to date heating degree days 0  
Since 1 July heating degree days 0  
Cooling Degree Days 6    
Month to date cooling degree days 302  
Year to date cooling degree days 2173  
Growing Degree Days 20 (Base 50)    
Moisture  
Dew Point 40 °F    
Average Humidity 37    
Maximum Humidity 57    
Minimum Humidity 16    
Precipitation  
Precipitation 0.00 in 0.01 in 0.80 in (2005)
Month to date precipitation T 0.09  
Year to date precipitation 1.12 5.19  
Since 1 July precipitation 0.02 0.28  
Snow  
Snow 0.00 in - 0.00 in ()
Month to date snowfall 0.0  
Since 1 July snowfall 0.0  
Since 1 September snowfall 0.0  
Snow Depth 0.00 in    
Sea Level Pressure  
Sea Level Pressure 29.80 in    
Wind  
Wind Speed 9 mph (WSW)    
Max Wind Speed 25 mph    
Max Gust Speed 31 mph    
Visibility 10 miles    
Events      
T = Trace of Precipitation, MM = Missing Value Source: NWS Daily Summary

Daily Weather History Graph

Daily Weather History Graph

Search for Another Location

Airport:

Trip Planner

Search our weather history database for the weather conditions in past years. The results will help you decide how hot, cold, wet, or windy it might be!

Date:

Astronomy

Sep. 20, 2013 Rise Set
Actual Time 6:39 AM PDT 6:52 PM PDT
Civil Twilight 6:14 AM PDT 7:17 PM PDT
Nautical Twilight 5:45 AM PDT 7:46 PM PDT
Astronomical Twilight 5:15 AM PDT 8:16 PM PDT
Moon 7:34 PM PDT 7:54 AM PDT
Length of Visible Light 13h 02m
Length of Day
12h 12m
Full, 98% of the Moon is Illuminated
Sep 20
Full
Sep 26
Last Quarter
Oct 4
New
Oct 11
First Quarter
Oct 18
Full

Hourly Weather History & Observations

Time (PDT) Temp. Dew Point Humidity Pressure Visibility Wind Dir Wind Speed Gust Speed Precip Events Conditions
12:56 AM 66.9 °F 35.1 °F 31% 29.78 in 10.0 mi WSW 3.5 mph - N/A   Clear
1:56 AM 61.0 °F 33.1 °F 35% 29.79 in 10.0 mi WSW 3.5 mph - N/A   Clear
2:56 AM 57.9 °F 30.0 °F 35% 29.78 in 10.0 mi WNW 5.8 mph - N/A   Clear
3:56 AM 59.0 °F 35.1 °F 41% 29.78 in 10.0 mi Calm Calm - N/A   Clear
4:56 AM 55.0 °F 30.9 °F 40% 29.79 in 10.0 mi Calm Calm - N/A   Clear
5:56 AM 51.1 °F 28.9 °F 43% 29.81 in 10.0 mi Calm Calm - N/A   Clear
6:56 AM 52.0 °F 30.9 °F 45% 29.82 in 10.0 mi WSW 3.5 mph - N/A   Clear
7:56 AM 61.0 °F 33.1 °F 35% 29.83 in 10.0 mi Calm Calm - N/A   Clear
8:56 AM 69.1 °F 36.0 °F 30% 29.83 in 10.0 mi Calm Calm - N/A   Clear
9:56 AM 77.0 °F 36.0 °F 23% 29.83 in 10.0 mi Calm Calm - N/A   Clear
10:56 AM 84.9 °F 34.0 °F 16% 29.81 in 10.0 mi Calm Calm - N/A   Clear
11:56 AM 88.0 °F 39.9 °F 18% 29.80 in 10.0 mi Variable 4.6 mph - N/A   Clear
12:56 PM 90.0 °F 44.1 °F 20% 29.78 in 10.0 mi WSW 17.3 mph 26.5 mph N/A   Clear
1:56 PM 89.1 °F 43.0 °F 20% 29.77 in 10.0 mi WSW 21.9 mph 31.1 mph N/A   Clear
2:56 PM 88.0 °F 37.9 °F 17% 29.78 in 10.0 mi SW 16.1 mph 26.5 mph N/A   Clear
3:56 PM 86.0 °F 39.9 °F 20% 29.78 in 10.0 mi WSW 18.4 mph 24.2 mph N/A   Clear
4:56 PM 82.0 °F 44.1 °F 26% 29.77 in 10.0 mi West 13.8 mph 24.2 mph N/A   Clear
5:56 PM 75.9 °F 51.1 °F 42% 29.79 in 10.0 mi West 24.2 mph - N/A   Clear
6:56 PM 72.0 °F 51.1 °F 48% 29.81 in 10.0 mi WSW 19.6 mph - N/A   Clear
7:56 PM 69.1 °F 54.0 °F 58% 29.81 in 10.0 mi SW 15.0 mph - N/A   Clear
8:56 PM 69.1 °F 48.9 °F 49% 29.82 in 10.0 mi WSW 15.0 mph - N/A   Clear
9:56 PM 68.0 °F 46.9 °F 47% 29.82 in 10.0 mi SW 15.0 mph - N/A   Clear
10:56 PM 66.9 °F 45.0 °F 45% 29.82 in 10.0 mi SW 11.5 mph - N/A   Clear
11:56 PM 66.0 °F 46.9 °F 50% 29.82 in 10.0 mi SW 9.2 mph - N/A   Clear